Date,TemperatureHighF,TemperatureAvgF,TemperatureLowF,DewpointHighF,DewpointAvgF,DewpointLowF,HumidityHigh,HumidityAvg,HumidityLow,PressureMaxIn,PressureMinIn,WindSpeedMaxMPH,WindSpeedAvgMPH,GustSpeedMaxMPH,PrecipitationSumIn
2013-2-1,65.6,59.1,55.1,44.0,36.7,23.0,60,44,25,30.25,30.17,1,0,0,0.00
2013-2-2,64.3,59.8,56.4,41.0,30.5,21.0,48,34,23,30.30,30.23,1,0,0,0.00
2013-2-3,62.1,56.7,49.2,47.0,33.7,25.0,78,44,30,30.23,30.12,2,0,0,0.00
2013-2-4,64.8,58.3,51.4,44.0,30.3,21.0,54,35,25,30.18,30.09,2,0,0,0.00
2013-2-5,59.1,52.6,46.9,47.0,35.5,25.0,82,56,28,30.13,30.05,10,1,0,0.00
2013-2-6,54.4,48.9,45.2,44.0,30.7,14.0,80,51,26,30.21,30.13,3,0,0,0.00
2013-2-7,45.8,43.5,41.5,35.0,33.8,31.0,77,69,56,30.20,30.17,0,0,0,0.00
2013-2-15,68.8,64.7,62.2,37.0,30.8,-99.9,34,29,26,30.28,0.00,4,-16,0,0.00
2013-2-16,68.1,62.7,57.5,39.0,29.7,24.0,39,29,22,30.24,30.06,2,0,0,0.00
2013-2-17,60.2,54.2,44.4,47.0,34.6,24.0,82,51,29,30.06,29.98,7,0,0,0.00
2013-2-18,47.6,41.2,38.5,41.0,36.8,29.0,92,85,50,30.12,30.02,4,0,0,0.00
2013-2-19,41.0,37.8,33.5,39.0,33.8,29.0,94,86,76,30.06,29.83,9,1,0,0.47
2013-2-20,54.4,42.6,33.4,43.0,32.5,27.0,84,68,44,30.14,29.89,16,2,0,0.09
2013-2-21,54.8,46.0,38.5,40.0,32.6,25.0,80,61,42,30.23,30.10,5,1,0,0.00
2013-2-22,55.1,49.8,44.2,43.0,32.2,23.0,68,52,42,30.30,30.22,6,0,0,0.00
2013-2-23,56.8,48.9,42.2,41.0,33.8,23.0,78,57,33,30.27,30.14,9,1,0,0.00
2013-2-24,55.1,49.3,43.5,32.0,21.1,13.0,49,33,26,30.31,30.16,14,2,0,0.00
2013-2-25,59.0,52.8,47.3,40.0,25.2,9.0,54,36,14,30.32,30.17,10,0,0,0.00
2013-2-26,62.3,56.3,48.8,36.0,22.7,11.0,38,28,18,30.22,30.13,12,2,0,0.00
2013-2-27,64.5,58.4,52.4,43.0,28.3,16.0,53,33,20,30.37,30.22,12,1,0,0.00
2013-2-28,66.8,60.4,54.5,47.0,39.9,28.0,58,47,35,30.44,30.36,12,1,0,0.00